Participated 2 times
Between 1987 and 1988
Stefano Giuliani, Italy
Tour de France 2026 starts from Barcelona, Spain in

Stats and Facts from
Tour de France.

2026   2025   2024   2023  2022  2021  2020  2019   2018  2017   2016   2015  2014  2013   2012   2011  2010   2009   2008   2007   2006   2005   2004   2003   2002   2001   2000   1999   1998   1997  1996   1995   1994   1993   1992  1991   1990   1989   1988   1987   1986   1985   1984   1983  1982  1981   1980   1979  1978  1977   1976  1975  1974  1973   1972   1971   1970  1969   1968   1967   1966   1965  1964  1963   1962   1961   1960   1959   1958   1957  1956   1955   1954   1953   1952  1951  1950  1949   1948  1947  1939   1938   1937   1936   1935   1934   1933  1932   1931   1930  1929   1928   1927   1926  1925  1924  1923   1922   1921   1920   1919  1914   1913   1912   1911   1910  1909   1908   1907   1906  1905  1904   1903 

Tourstats
Sitemap

After stage 21 - 2025:
 16451 starters.
  5464 different riders.
  689 teams.
  2398 stages.
  470 restdays.
  466506.50 km.
  5925 abandoned riders.

Click map for 1959 route.
Facts from Tour de France 1959
  |   Stages.  |   Stage winners.  |   Days in jerseys.  |   Teams.  |   All riders.  |   All riders by age.  |   All riders from.  |  

  |   Rookies.  |   Withdrawls.  |   Average speed.  |   GC.  |   Polka  |   Green  |   White  |   Summits. (In tour)  |   Miscellaneous.  |  

Stage 11 on July 6th. 1959
Pick a stage:  1  2  3  4  5  6  7  8  9  10  11  12  13  14  15  16  17  18  19  20  21  22  

After stage 11:    Michel Vermeulin  
  Bagnères-de-BigorreSaint-Gaudens | Dist: 119.00km. | Winner: André Darrigade

Podium
2  Col d'Aspin Jean-Baptiste Dottoafter24.50 km.

1  Col de Peyresourde Valentin Huotafter55.00 km.


Average speed for all riders in stage:  34,629 km./hr.

1
 André Darrigade  France03h 19' 30"=35,789  km/h

2
 Gerard Saint  Ouest-Sud Ouest03h 19' 30"=35,789  km/h

3
 Louison Bobet  France03h 19' 30"=35,789  km/h

4  Jacques Anquetil  France03h 19' 30"=35,789  km/h

5  Michel Vermeulin  Paris-Nord Est03h 19' 30"=35,789  km/h

6  Jos Hoevenaers  Belgium03h 19' 30"=35,789  km/h

7  Rolf Graf  Switzerland-Germany03h 19' 30"=35,789  km/h

8  Armand Desmet  Belgium03h 19' 30"=35,789  km/h

9  Raymond Hoorelbeke  Paris-Nord Est03h 19' 30"=35,789  km/h

10  Valentin Huot  Centre-Midi03h 19' 30"=35,789  km/h

11  Charly Gaul  Holland-Luxembourg03h 19' 30"=35,789  km/h

12  Brian Robinson  Internations03h 19' 30"=35,789  km/h

13  Marcel Ernzer  Holland-Luxembourg03h 19' 30"=35,789  km/h

14  Henri Anglade  Centre-Midi03h 19' 30"=35,789  km/h

15  François Mahé  Ouest-Sud Ouest03h 19' 30"=35,789  km/h

16  Jan Adriaensens  Belgium03h 19' 30"=35,789  km/h

17  Joseph Planckaert  Belgium03h 19' 30"=35,789  km/h

18  Ercole Baldini  Italy03h 19' 30"=35,789  km/h

19  Julio San Emeterio  Spain03h 19' 30"=35,789  km/h

20  Jean-Baptiste Dotto  Centre-Midi03h 19' 30"=35,789  km/h

21  Lothar Friedrich  Switzerland-Germany03h 19' 30"=35,789  km/h

22  Federico Bahamontes  Spain03h 19' 30"=35,789  km/h

23  Roger Rivière  France03h 19' 30"=35,789  km/h

24  Roberto Falaschi  Italy03h 19' 30"=35,789  km/h

25  Jean Stablinski  France03h 19' 30"=35,789  km/h

26  Jean Graczyk  France03h 23' 12"+  00:03:42 =35,138  km/h

27  Louis Bergaud  Centre-Midi03h 23' 12"+  00:03:42 =35,138  km/h

28  Marcel Queheille  Ouest-Sud Ouest03h 23' 13"+  00:03:43 =35,135  km/h

29  Mathias Löder  Switzerland-Germany03h 23' 13"+  00:03:43 =35,135  km/h

30  José-Sousa Cardoso  Internations03h 23' 13"+  00:03:43 =35,135  km/h

31  Jean Gainche  Ouest-Sud Ouest03h 23' 13"+  00:03:43 =35,135  km/h

32  Aldo Bolzan  Holland-Luxembourg03h 23' 13"+  00:03:43 =35,135  km/h

33  Piet Damen  Holland-Luxembourg03h 23' 13"+  00:03:43 =35,135  km/h

34  Joseph Thomin  Ouest-Sud Ouest03h 23' 13"+  00:03:43 =35,135  km/h

35  René Pavard  Paris-Nord Est03h 23' 13"+  00:03:43 =35,135  km/h

36  Carmelo Morales  Spain03h 23' 13"+  00:03:43 =35,135  km/h

37  Eddy Pauwels  Belgium03h 23' 13"+  00:03:43 =35,135  km/h

38  Antonio Suarez  Spain03h 23' 13"+  00:03:43 =35,135  km/h

39  René Marigil  Spain03h 23' 13"+  00:03:43 =35,135  km/h

40  Jean Brankart  Belgium03h 23' 13"+  00:03:43 =35,135  km/h

41  Michel Van Aerde  Belgium03h 23' 13"+  00:03:43 =35,135  km/h

42  Adolf Christian  Internations03h 23' 13"+  00:03:43 =35,135  km/h

43  Victor Sutton  Internations03h 23' 13"+  00:03:43 =35,135  km/h

44  Michele Gismondi  Italy03h 23' 13"+  00:03:43 =35,135  km/h

45  Fred De Bruyne  Belgium03h 23' 13"+  00:03:43 =35,135  km/h

46  Aniceto Utset  Spain03h 23' 13"+  00:03:43 =35,135  km/h

47  Francis Pipelin  Ouest-Sud Ouest03h 23' 13"+  00:03:43 =35,135  km/h

48  André Le Dissez  Paris-Nord Est03h 23' 13"+  00:03:43 =35,135  km/h

49  Raymond Mastrotto  France03h 23' 13"+  00:03:43 =35,135  km/h

50  Louis Rostollan  Centre-Midi03h 23' 27"+  00:03:57 =35,095  km/h

51  Juan Campillo  Spain03h 26' 37"+  00:07:07 =34,557  km/h

52  Joseph Groussard  Ouest-Sud Ouest03h 28' 43"+  00:09:13 =34,209  km/h

53  Félix Le Buhotel  Ouest-Sud Ouest03h 28' 43"+  00:09:13 =34,209  km/h

54  Kamiel Buysse  Belgium03h 28' 44"+  00:09:14 =34,206  km/h

55  Ernesto Bono  Italy03h 28' 44"+  00:09:14 =34,206  km/h

56  Waldemaro Bartolozzi  Italy03h 28' 44"+  00:09:14 =34,206  km/h

57  Frans Reitz  Switzerland-Germany03h 28' 44"+  00:09:14 =34,206  km/h

58  Robert Cazala  France03h 28' 44"+  00:09:14 =34,206  km/h

59  Martin van der Borgh  Holland-Luxembourg03h 28' 44"+  00:09:14 =34,206  km/h

60  Fernand Picot  Ouest-Sud Ouest03h 28' 44"+  00:09:14 =34,206  km/h

61  Marcel Janssens  Belgium03h 28' 44"+  00:09:14 =34,206  km/h

62  Michel Dejouhannet  Centre-Midi03h 28' 44"+  00:09:14 =34,206  km/h

63  José Herrero  Spain03h 28' 44"+  00:09:14 =34,206  km/h

64  Stéphane Lach  Paris-Nord Est03h 28' 44"+  00:09:14 =34,206  km/h

65  Edouard Delberghe  Paris-Nord Est03h 28' 44"+  00:09:14 =34,206  km/h

66  Giuseppe Fallarini  Italy03h 28' 44"+  00:09:14 =34,206  km/h

67  Roger Hassenforder  France03h 28' 44"+  00:09:14 =34,206  km/h

68  René Privat  France03h 28' 44"+  00:09:14 =34,206  km/h

69  Tadeusz Wierucki  Internations03h 28' 44"+  00:09:14 =34,206  km/h

70  Nello Fabbri  Italy03h 28' 44"+  00:09:14 =34,206  km/h

71  Jean Forestier  Centre-Midi03h 28' 44"+  00:09:14 =34,206  km/h

72  Ernst Traxel  Switzerland-Germany03h 28' 44"+  00:09:14 =34,206  km/h

73  Gerrit Voorting  Holland-Luxembourg03h 28' 44"+  00:09:14 =34,206  km/h

74  Max Schellenberg  Switzerland-Germany03h 28' 44"+  00:09:14 =34,206  km/h

75  Marcel Rohrbach  Centre-Midi03h 28' 44"+  00:09:14 =34,206  km/h

76  Jean-Claude Annaert  Paris-Nord Est03h 28' 44"+  00:09:14 =34,206  km/h

77  Luis Otaño  Spain03h 28' 44"+  00:09:14 =34,206  km/h

78  Pierre Everaert  France03h 28' 44"+  00:09:14 =34,206  km/h

79  Jesús Galdeano  Spain03h 28' 44"+  00:09:14 =34,206  km/h

80  Raphaël Geminiani  France03h 28' 44"+  00:09:14 =34,206  km/h

81  Fernando Manzaneque  Spain03h 28' 44"+  00:09:14 =34,206  km/h

82  Piet van Est  Holland-Luxembourg03h 28' 44"+  00:09:14 =34,206  km/h

83  Seamus Elliott  Internations03h 28' 44"+  00:09:14 =34,206  km/h

84  Orphée Meneghini  Paris-Nord Est03h 28' 44"+  00:09:14 =34,206  km/h

85  Louis Bisilliat  Centre-Midi03h 28' 44"+  00:09:14 =34,206  km/h

86  Jean Robic  Paris-Nord Est03h 28' 44"+  00:09:14 =34,206  km/h

87  José Gomez del Moral  Spain03h 28' 44"+  00:09:14 =34,206  km/h

88  Piet de Jongh  Holland-Luxembourg03h 28' 44"+  00:09:14 =34,206  km/h

89  Bernard Gauthier  Centre-Midi03h 28' 44"+  00:09:14 =34,206  km/h

90  Manuel Busto  Centre-Midi03h 28' 44"+  00:09:14 =34,206  km/h

91  Antonio Baptista  Internations03h 30' 01"+  00:10:31 =33,997  km/h

92  Dino Bruni  Italy03h 35' 21"+  00:15:51 =33,155  km/h

93  Arrigo Padovan  Italy03h 35' 21"+  00:15:51 =33,155  km/h

94  Jean-Claude Lefebvre  Paris-Nord Est03h 35' 21"+  00:15:51 =33,155  km/h

95  Jean Hoffmann  Paris-Nord Est03h 35' 21"+  00:15:51 =33,155  km/h

96  Bram Kool  Holland-Luxembourg03h 35' 21"+  00:15:51 =33,155  km/h

97  Aurelio Cestari  Italy03h 35' 21"+  00:15:51 =33,155  km/h

98  Settimo Sabbadini  Ouest-Sud Ouest03h 35' 21"+  00:15:51 =33,155  km/h

99  Max Bleneau  Ouest-Sud Ouest03h 35' 21"+  00:15:51 =33,155  km/h

100  Ernest Ecuyer  Switzerland-Germany03h 35' 21"+  00:15:51 =33,155  km/h

101  Martin Van Geneugden  Belgium03h 35' 21"+  00:15:51 =33,155  km/h

102  Attilio Moresi  Switzerland-Germany03h 35' 21"+  00:15:51 =33,155  km/h

103  Jaap Kersten  Holland-Luxembourg03h 35' 21"+  00:15:51 =33,155  km/h

104  Pierino Baffi  Italy03h 35' 21"+  00:15:51 =33,155  km/h

105  Emmanuel Plattner  Switzerland-Germany03h 35' 21"+  00:15:51 =33,155  km/h

106  Albert Bouvet  Ouest-Sud Ouest03h 35' 28"+  00:15:58 =33,137  km/h


Withdrawls: 1
 RiderTeamReason
49   Vito Favero ItalyDid not finish
Todays birthdays.

1889 • Adolphe Landon
1890 • Jules Lebreton
1904 • Julien Grujon
1909 • Erich Metze
1926 • Giovanni Rossi
1928 • Serge Blusson
1928 • Alois Vansteenkiste
1931 • André Dupré
1934 • Alfred Rüegg
1962 • Francisco Espinosa
1962 • Paul Kimmage
1963 • Federico Muñoz
1966 • Andrea Tafi
1971 • Emmanuel Magnien
1973 • Paolo Savoldelli
1985 • Mikhail Ignatyev

 

Optimized for Chrome - Edge
and Opera browsers.